RYR9YF LEVC-LIME

Flight info

Callsign RYR9YF
Flight time 1h 37m
Altitude 38000
Route ORVUS M871 PTC DCT MHN DCT ISTER DCT LUNOR DCT NESUL DCT NEGAT DCT OMEDA DCT RAPUR DCT TORTU DCT ERTEV/N0422F340 DCT ITCAP/N0328F180 Q713 AMOXI T836 DIXER
Aircraft B738/M-SDE3FGILRWY/SB1

Departure

Time 2026-05-04 20:20
Airport Valencia Airport (LEVC)

Arrival

Time 2026-05-04 21:58
Airport Il Caravaggio International Airport (LIME)
Time Latitude Longitude Altitude Speed Heading
2026-05-04 20:05 39.49047 -0.47387 208 ft 0 kts 22°
2026-05-04 20:11 39.49034 -0.47394 214 ft 4 kts 18°
2026-05-04 20:11 39.49008 -0.47402 208 ft 4 kts
2026-05-04 20:11 39.48982 -0.47402 208 ft 4 kts 342°
2026-05-04 20:12 39.48964 -0.47387 219 ft 2 kts 296°
2026-05-04 20:12 39.48963 -0.47386 208 ft 0 kts 296°
2026-05-04 20:14 39.48963 -0.47387 208 ft 0 kts 296°
2026-05-04 20:14 39.48970 -0.47404 208 ft 5 kts 297°
2026-05-04 20:15 39.48995 -0.47467 213 ft 11 kts 296°
2026-05-04 20:15 39.49037 -0.47575 214 ft 16 kts 297°
2026-05-04 20:15 39.49050 -0.47725 208 ft 18 kts 258°
2026-05-04 20:15 39.49030 -0.47884 208 ft 17 kts 282°
2026-05-04 20:16 39.49080 -0.48024 214 ft 18 kts 296°
2026-05-04 20:16 39.49140 -0.48182 212 ft 22 kts 296°
2026-05-04 20:16 39.49215 -0.48377 210 ft 27 kts 296°
2026-05-04 20:16 39.49301 -0.48604 212 ft 28 kts 296°
2026-05-04 20:17 39.49385 -0.48825 213 ft 26 kts 295°
2026-05-04 20:17 39.49464 -0.49032 208 ft 25 kts 295°
2026-05-04 20:17 39.49538 -0.49224 211 ft 23 kts 297°
2026-05-04 20:17 39.49607 -0.49408 213 ft 22 kts 296°
2026-05-04 20:18 39.49675 -0.49586 210 ft 22 kts 296°
2026-05-04 20:18 39.49741 -0.49758 216 ft 21 kts 297°
2026-05-04 20:18 39.49799 -0.49916 213 ft 14 kts 284°
2026-05-04 20:18 39.49735 -0.49994 213 ft 13 kts 207°
2026-05-04 20:19 39.49663 -0.50035 214 ft 9 kts 180°
2026-05-04 20:19 39.49623 -0.49980 211 ft 9 kts 115°
2026-05-04 20:19 39.49585 -0.49878 212 ft 25 kts 116°
2026-05-04 20:19 39.49405 -0.49404 208 ft 93 kts 116°
2026-05-04 20:20 39.49028 -0.48406 213 ft 149 kts 115°
2026-05-04 20:20 39.48524 -0.47132 662 ft 156 kts 116°
2026-05-04 20:20 39.47995 -0.45868 1253 ft 165 kts 118°
2026-05-04 20:20 39.47439 -0.44509 1713 ft 181 kts 118°
2026-05-04 20:21 39.46575 -0.43204 1923 ft 207 kts 154°
2026-05-04 20:21 39.45175 -0.42499 2119 ft 227 kts 152°
2026-05-04 20:21 39.43347 -0.38798 2775 ft 264 kts 118°
2026-05-04 20:22 39.42417 -0.36722 3431 ft 270 kts 122°
2026-05-04 20:22 39.41389 -0.34658 4119 ft 275 kts 124°
2026-05-04 20:22 39.40316 -0.32584 4764 ft 281 kts 124°
2026-05-04 20:22 39.39466 -0.30299 5384 ft 287 kts 101°
2026-05-04 20:23 39.39211 -0.27740 6129 ft 289 kts 95°
2026-05-04 20:23 39.39007 -0.25134 6795 ft 293 kts 95°
2026-05-04 20:23 39.38805 -0.22493 7485 ft 297 kts 96°
2026-05-04 20:23 39.38597 -0.19819 8214 ft 301 kts 97°
2026-05-04 20:24 39.38382 -0.17110 8952 ft 305 kts 97°
2026-05-04 20:24 39.38159 -0.14370 9712 ft 308 kts 98°
2026-05-04 20:24 39.37930 -0.11590 10316 ft 318 kts 98°
2026-05-04 20:24 39.37682 -0.08645 10560 ft 339 kts 98°
2026-05-04 20:25 39.37423 -0.05575 11144 ft 347 kts 98°
2026-05-04 20:25 39.37159 -0.02452 11874 ft 351 kts 98°
2026-05-04 20:25 39.36892 0.00703 12633 ft 355 kts 97°
2026-05-04 20:25 39.36623 0.03869 13483 ft 355 kts 97°
2026-05-04 20:26 39.36351 0.07057 14191 ft 359 kts 97°
2026-05-04 20:26 39.36072 0.10293 14798 ft 366 kts 98°
2026-05-04 20:26 39.35787 0.13589 15418 ft 372 kts 98°
2026-05-04 20:26 39.35498 0.16932 16063 ft 377 kts 98°
2026-05-04 20:27 39.35202 0.20325 16707 ft 382 kts 99°
2026-05-04 20:27 39.34902 0.23768 17250 ft 390 kts 99°
2026-05-04 20:27 39.34593 0.27289 17787 ft 398 kts 99°
2026-05-04 20:27 39.34279 0.30871 18396 ft 403 kts 99°
2026-05-04 20:28 39.33961 0.34490 18969 ft 407 kts 100°
2026-05-04 20:28 39.33640 0.38131 19583 ft 410 kts 100°
2026-05-04 20:28 39.33315 0.41796 20165 ft 413 kts 100°
2026-05-04 20:28 39.33125 0.45528 20705 ft 420 kts 93°
2026-05-04 20:29 39.33225 0.49322 21279 ft 426 kts 89°
2026-05-04 20:29 39.33444 0.53153 21838 ft 430 kts 88°
2026-05-04 20:29 39.33692 0.57019 22379 ft 434 kts 88°
2026-05-04 20:29 39.33931 0.60918 22913 ft 437 kts 89°
2026-05-04 20:30 39.34149 0.64852 23447 ft 441 kts 89°
2026-05-04 20:30 39.34347 0.68817 23903 ft 445 kts 90°
2026-05-04 20:30 39.34532 0.72817 24390 ft 447 kts 90°
2026-05-04 20:30 39.34708 0.76837 24860 ft 450 kts 90°
2026-05-04 20:31 39.34881 0.80887 25290 ft 453 kts 90°
2026-05-04 20:31 39.35053 0.84972 25774 ft 456 kts 90°
2026-05-04 20:31 39.35225 0.89072 26246 ft 458 kts 90°
2026-05-04 20:31 39.35397 0.93193 26694 ft 461 kts 90°
2026-05-04 20:32 39.35569 0.97341 27116 ft 464 kts 90°
2026-05-04 20:32 39.35741 1.01517 27534 ft 467 kts 90°
2026-05-04 20:32 39.35913 1.05726 27955 ft 470 kts 90°
2026-05-04 20:32 39.36084 1.09945 28370 ft 473 kts 90°
2026-05-04 20:33 39.36255 1.14201 28772 ft 475 kts 90°
2026-05-04 20:33 39.36425 1.18484 29141 ft 478 kts 90°
2026-05-04 20:33 39.36595 1.22778 29536 ft 480 kts 90°
2026-05-04 20:33 39.36763 1.27105 29912 ft 483 kts 90°
2026-05-04 20:34 39.36931 1.31448 30229 ft 486 kts 90°
2026-05-04 20:34 39.37100 1.35820 30534 ft 488 kts 90°
2026-05-04 20:34 39.37267 1.40207 30821 ft 491 kts 91°
2026-05-04 20:34 39.37431 1.44627 31106 ft 493 kts 91°
2026-05-04 20:35 39.37593 1.49064 31387 ft 495 kts 91°
2026-05-04 20:35 39.37754 1.53519 31638 ft 498 kts 91°
2026-05-04 20:35 39.37913 1.58006 31863 ft 501 kts 91°
2026-05-04 20:35 39.38072 1.62520 32091 ft 505 kts 91°
2026-05-04 20:36 39.38231 1.67062 32398 ft 506 kts 91°
2026-05-04 20:36 39.38389 1.71592 32781 ft 505 kts 91°
2026-05-04 20:36 39.38545 1.76116 33171 ft 503 kts 91°
2026-05-04 20:36 39.38700 1.80638 33532 ft 503 kts 91°
2026-05-04 20:37 39.38850 1.85090 33842 ft 503 kts 91°
2026-05-04 20:37 39.38999 1.89612 34122 ft 504 kts 91°
2026-05-04 20:37 39.39148 1.94137 34367 ft 504 kts 92°
2026-05-04 20:37 39.39294 1.98670 34564 ft 506 kts 92°
2026-05-04 20:38 39.39440 2.03223 34838 ft 506 kts 92°
2026-05-04 20:38 39.39584 2.07754 35186 ft 503 kts 91°
2026-05-04 20:38 39.39727 2.12328 35530 ft 501 kts 91°
2026-05-04 20:38 39.39866 2.16829 35812 ft 501 kts 91°
2026-05-04 20:39 39.40000 2.21262 36057 ft 501 kts 91°
2026-05-04 20:39 39.40137 2.25831 36316 ft 501 kts 91°
2026-05-04 20:39 39.40270 2.30313 36586 ft 500 kts 91°
2026-05-04 20:39 39.40401 2.34741 36868 ft 499 kts 91°
2026-05-04 20:40 39.40530 2.39218 37126 ft 498 kts 91°
2026-05-04 20:40 39.40658 2.43691 37356 ft 498 kts 91°
2026-05-04 20:40 39.40784 2.48168 37593 ft 498 kts 91°
2026-05-04 20:40 39.40909 2.52640 37855 ft 497 kts 91°
2026-05-04 20:41 39.41031 2.57102 38004 ft 498 kts 90°
2026-05-04 20:41 39.41152 2.61592 37984 ft 501 kts 91°
2026-05-04 20:41 39.41390 2.70593 37972 ft 499 kts 91°
2026-05-04 20:42 39.41621 2.79513 37984 ft 494 kts 91°
2026-05-04 20:42 39.41842 2.88381 37977 ft 492 kts 91°
2026-05-04 20:43 39.42021 2.95777 37983 ft 491 kts 91°
2026-05-04 20:43 39.42228 3.04620 37994 ft 499 kts 91°
2026-05-04 20:44 39.42436 3.13658 37994 ft 506 kts 92°
2026-05-04 20:44 39.42939 3.22804 37973 ft 517 kts 80°
2026-05-04 20:45 39.45277 3.31638 37981 ft 522 kts 61°
2026-05-04 20:45 39.48991 3.39712 37987 ft 523 kts 57°
2026-05-04 20:46 39.52816 3.47744 38002 ft 524 kts 58°
2026-05-04 20:46 39.56576 3.55820 37982 ft 523 kts 58°
2026-05-04 20:47 39.60281 3.63912 37974 ft 521 kts 58°
2026-05-04 20:47 39.63958 3.71982 37976 ft 518 kts 59°
2026-05-04 20:48 39.67611 3.80010 37975 ft 515 kts 59°
2026-05-04 20:48 39.71244 3.88010 37975 ft 513 kts 59°
2026-05-04 20:49 39.74855 3.95978 37998 ft 511 kts 59°
2026-05-04 20:49 39.78449 4.03929 37986 ft 510 kts 59°
2026-05-04 20:50 39.82027 4.11867 37995 ft 509 kts 59°
2026-05-04 20:50 39.85598 4.19810 37975 ft 509 kts 59°
2026-05-04 20:51 39.89167 4.27763 37989 ft 509 kts 59°
2026-05-04 20:51 39.92740 4.35748 38000 ft 510 kts 59°
2026-05-04 20:52 39.96314 4.43755 38012 ft 513 kts 59°
2026-05-04 20:52 39.99901 4.51814 37993 ft 515 kts 59°
2026-05-04 20:53 40.03492 4.59903 37957 ft 516 kts 59°
2026-05-04 20:53 40.07084 4.68013 37976 ft 516 kts 59°
2026-05-04 20:54 40.10679 4.76134 37985 ft 516 kts 59°
2026-05-04 20:54 40.14270 4.84259 37977 ft 516 kts 59°
2026-05-04 20:55 40.17854 4.92395 37985 ft 516 kts 59°
2026-05-04 20:55 40.21429 5.00532 37976 ft 515 kts 59°
2026-05-04 20:56 40.24984 5.08648 37971 ft 513 kts 59°
2026-05-04 20:56 40.28523 5.16746 37973 ft 512 kts 59°
2026-05-04 20:57 40.32048 5.24835 37981 ft 511 kts 59°
2026-05-04 20:57 40.35565 5.32927 38011 ft 510 kts 59°
2026-05-04 20:58 40.39044 5.40951 37973 ft 509 kts 59°
2026-05-04 20:58 40.42538 5.49024 37983 ft 508 kts 59°
2026-05-04 20:59 40.46043 5.57141 37977 ft 508 kts 59°
2026-05-04 20:59 40.49495 5.65159 37985 ft 507 kts 59°
2026-05-04 21:00 40.52963 5.73236 37963 ft 507 kts 59°
2026-05-04 21:00 40.56424 5.81317 37979 ft 507 kts 59°
2026-05-04 21:01 40.59876 5.89402 37979 ft 507 kts 59°
2026-05-04 21:01 40.63329 5.97511 37983 ft 507 kts 60°
2026-05-04 21:02 40.66773 6.05618 37985 ft 508 kts 60°
2026-05-04 21:02 40.70215 6.13743 37985 ft 507 kts 59°
2026-05-04 21:03 40.73650 6.21872 37984 ft 507 kts 59°
2026-05-04 21:03 40.77078 6.30008 37992 ft 508 kts 60°
2026-05-04 21:04 40.80504 6.38162 37991 ft 508 kts 60°
2026-05-04 21:04 40.83925 6.46325 37989 ft 508 kts 60°
2026-05-04 21:05 40.87334 6.54482 37989 ft 507 kts 60°
2026-05-04 21:05 40.90735 6.62643 37989 ft 507 kts 60°
2026-05-04 21:06 40.94130 6.70810 38028 ft 506 kts 60°
2026-05-04 21:06 40.97515 6.78978 37999 ft 507 kts 60°
2026-05-04 21:07 41.00899 6.87164 37978 ft 506 kts 60°
2026-05-04 21:07 41.04269 6.95340 37995 ft 505 kts 60°
2026-05-04 21:08 41.07632 7.03515 37995 ft 505 kts 60°
2026-05-04 21:08 41.10993 7.11701 38000 ft 505 kts 60°
2026-05-04 21:09 41.14347 7.19890 38009 ft 506 kts 60°
2026-05-04 21:09 41.17699 7.28096 37998 ft 506 kts 60°
2026-05-04 21:10 41.21046 7.36314 38003 ft 506 kts 60°
2026-05-04 21:10 41.24391 7.44552 38003 ft 507 kts 60°
2026-05-04 21:11 41.27731 7.52800 38004 ft 507 kts 61°
2026-05-04 21:11 41.31066 7.61058 37997 ft 507 kts 61°
2026-05-04 21:12 41.34374 7.69274 38003 ft 507 kts 61°
2026-05-04 21:12 41.37700 7.77555 38012 ft 507 kts 61°
2026-05-04 21:13 41.41752 7.85110 38027 ft 499 kts 38°
2026-05-04 21:13 41.44520 7.87953 38004 ft 493 kts 26°
2026-05-04 21:13 41.47510 7.89945 38020 ft 484 kts 15°
2026-05-04 21:14 41.53783 7.93190 38018 ft 484 kts 15°
2026-05-04 21:14 41.60058 7.96462 38014 ft 485 kts 16°
2026-05-04 21:15 41.66318 7.99810 38015 ft 484 kts 16°
2026-05-04 21:15 41.72565 8.03191 38031 ft 485 kts 17°
2026-05-04 21:16 41.78819 8.06587 38018 ft 485 kts 17°
2026-05-04 21:16 41.85073 8.09984 38019 ft 485 kts 17°
2026-05-04 21:17 41.91321 8.13384 38046 ft 485 kts 17°
2026-05-04 21:17 41.97585 8.16800 38024 ft 486 kts 17°
2026-05-04 21:18 42.03849 8.20223 38025 ft 486 kts 17°
2026-05-04 21:18 42.10123 8.23660 38021 ft 487 kts 17°
2026-05-04 21:19 42.16398 8.27104 38028 ft 488 kts 17°
2026-05-04 21:19 42.22683 8.30561 38023 ft 488 kts 17°
2026-05-04 21:20 42.28974 8.34030 38027 ft 489 kts 17°
2026-05-04 21:20 42.35266 8.37506 38037 ft 488 kts 17°
2026-05-04 21:21 42.41549 8.40986 38027 ft 488 kts 17°
2026-05-04 21:21 42.47820 8.44469 38042 ft 487 kts 17°
2026-05-04 21:22 42.54083 8.47955 38036 ft 486 kts 17°
2026-05-04 21:22 42.60334 8.51442 38037 ft 485 kts 17°
2026-05-04 21:23 42.66576 8.54931 38042 ft 485 kts 17°
2026-05-04 21:23 42.72810 8.58422 38051 ft 484 kts 17°
2026-05-04 21:24 42.79037 8.61919 38041 ft 484 kts 17°
2026-05-04 21:24 42.85218 8.65397 38035 ft 484 kts 17°
2026-05-04 21:25 42.91436 8.68902 38050 ft 483 kts 18°
2026-05-04 21:25 42.97656 8.72407 38029 ft 483 kts 17°
2026-05-04 21:26 43.03863 8.75913 38034 ft 482 kts 17°
2026-05-04 21:26 43.10062 8.79422 38039 ft 482 kts 17°
2026-05-04 21:27 43.16241 8.82929 38039 ft 481 kts 17°
2026-05-04 21:27 43.22415 8.86441 38037 ft 480 kts 17°
2026-05-04 21:28 43.27542 8.89363 38034 ft 479 kts 18°
2026-05-04 21:28 43.33695 8.92877 38041 ft 479 kts 18°
2026-05-04 21:29 43.39968 8.95649 38044 ft 468 kts
2026-05-04 21:29 43.43153 8.96385 37798 ft 464 kts
2026-05-04 21:29 43.46336 8.96997 37403 ft 458 kts
2026-05-04 21:30 43.49475 8.97575 37001 ft 453 kts
2026-05-04 21:30 43.52592 8.98164 36601 ft 449 kts
2026-05-04 21:30 43.55675 8.98771 36169 ft 447 kts
2026-05-04 21:30 43.58721 8.99391 35919 ft 439 kts
2026-05-04 21:31 43.64820 9.00641 35253 ft 449 kts
2026-05-04 21:31 43.67924 9.01290 34699 ft 450 kts
2026-05-04 21:31 43.71016 9.01950 34226 ft 450 kts
2026-05-04 21:32 43.74098 9.02611 33806 ft 447 kts
2026-05-04 21:32 43.77157 9.03268 33371 ft 444 kts
2026-05-04 21:32 43.80201 9.03920 32971 ft 440 kts
2026-05-04 21:32 43.83215 9.04565 32581 ft 437 kts
2026-05-04 21:33 43.86205 9.05205 32198 ft 433 kts
2026-05-04 21:33 43.89170 9.05838 31843 ft 430 kts
2026-05-04 21:33 43.92115 9.06467 31468 ft 426 kts
2026-05-04 21:33 43.95039 9.07091 31108 ft 424 kts
2026-05-04 21:34 43.97943 9.07712 30741 ft 421 kts
2026-05-04 21:34 44.00825 9.08329 30381 ft 418 kts
2026-05-04 21:34 44.03693 9.08944 30009 ft 415 kts
2026-05-04 21:34 44.06538 9.09556 29593 ft 412 kts
2026-05-04 21:35 44.09338 9.10359 29240 ft 411 kts 14°
2026-05-04 21:35 44.11993 9.11799 28891 ft 408 kts 20°
2026-05-04 21:35 44.14610 9.13383 27971 ft 417 kts 21°
2026-05-04 21:35 44.17320 9.15054 26951 ft 431 kts 22°
2026-05-04 21:36 44.20067 9.16750 26366 ft 431 kts 22°
2026-05-04 21:36 44.22790 9.18420 26010 ft 425 kts 22°
2026-05-04 21:36 44.25480 9.20059 25632 ft 420 kts 22°
2026-05-04 21:36 44.28144 9.21671 25234 ft 415 kts 22°
2026-05-04 21:37 44.30814 9.23279 24511 ft 421 kts 22°
2026-05-04 21:37 44.33511 9.24900 23940 ft 422 kts 22°
2026-05-04 21:37 44.36200 9.26518 23493 ft 419 kts 23°
2026-05-04 21:37 44.38862 9.28121 23062 ft 414 kts 23°
2026-05-04 21:38 44.41488 9.29705 22616 ft 410 kts 22°
2026-05-04 21:38 44.44100 9.31281 22141 ft 407 kts 22°
2026-05-04 21:38 44.46693 9.32849 21664 ft 404 kts 22°
2026-05-04 21:38 44.49268 9.34407 21165 ft 402 kts 22°
2026-05-04 21:39 44.51823 9.35954 20753 ft 398 kts 22°
2026-05-04 21:39 44.54356 9.37489 20358 ft 395 kts 22°
2026-05-04 21:39 44.56835 9.38994 19979 ft 392 kts 22°
2026-05-04 21:39 44.59364 9.40529 19595 ft 390 kts 22°
2026-05-04 21:40 44.61845 9.42037 19231 ft 388 kts 22°
2026-05-04 21:40 44.64313 9.43539 18860 ft 386 kts 22°
2026-05-04 21:40 44.66760 9.45026 18671 ft 378 kts 22°
2026-05-04 21:40 44.69143 9.46475 18442 ft 370 kts 22°
2026-05-04 21:41 44.71493 9.47905 18075 ft 366 kts 22°
2026-05-04 21:41 44.73783 9.49299 17723 ft 361 kts 22°
2026-05-04 21:41 44.76073 9.50693 17352 ft 357 kts 22°
2026-05-04 21:41 44.78340 9.52076 17008 ft 354 kts 22°
2026-05-04 21:42 44.80583 9.53445 16669 ft 350 kts 22°
2026-05-04 21:42 44.82842 9.54826 16313 ft 347 kts 22°
2026-05-04 21:42 44.85018 9.56157 15966 ft 344 kts 22°
2026-05-04 21:42 44.87203 9.57495 15627 ft 341 kts 22°
2026-05-04 21:43 44.89401 9.58841 15286 ft 339 kts 22°
2026-05-04 21:43 44.91525 9.60144 14944 ft 336 kts 22°
2026-05-04 21:43 44.93666 9.61458 14606 ft 334 kts 23°
2026-05-04 21:43 44.95789 9.62762 14276 ft 332 kts 23°
2026-05-04 21:44 44.97897 9.64058 13932 ft 329 kts 23°
2026-05-04 21:44 44.99990 9.65346 13563 ft 328 kts 23°
2026-05-04 21:44 45.02077 9.66631 13200 ft 325 kts 23°
2026-05-04 21:44 45.04142 9.67903 12851 ft 323 kts 24°
2026-05-04 21:45 45.06192 9.69167 12505 ft 321 kts 24°
2026-05-04 21:45 45.08236 9.70428 12165 ft 319 kts 24°
2026-05-04 21:45 45.10260 9.71678 11833 ft 317 kts 24°
2026-05-04 21:45 45.12273 9.72923 11509 ft 315 kts 24°
2026-05-04 21:46 45.14277 9.74163 11170 ft 313 kts 24°
2026-05-04 21:46 45.16271 9.75397 10837 ft 312 kts 24°
2026-05-04 21:46 45.18551 9.76810 10461 ft 310 kts 25°
2026-05-04 21:46 45.20230 9.77852 10181 ft 309 kts 25°
2026-05-04 21:47 45.22199 9.79074 9846 ft 309 kts 25°
2026-05-04 21:47 45.24160 9.80292 9487 ft 307 kts 25°
2026-05-04 21:47 45.26062 9.81475 9155 ft 306 kts 25°
2026-05-04 21:47 45.28055 9.82715 8806 ft 304 kts 25°
2026-05-04 21:48 45.29984 9.83915 8477 ft 302 kts 25°
2026-05-04 21:48 45.31905 9.85111 8153 ft 300 kts 25°
2026-05-04 21:48 45.34094 9.86476 7778 ft 298 kts 25°
2026-05-04 21:48 45.35701 9.87479 7507 ft 296 kts 24°
2026-05-04 21:49 45.37589 9.88657 7130 ft 297 kts 24°
2026-05-04 21:49 45.39467 9.89832 6782 ft 292 kts 24°
2026-05-04 21:49 45.41546 9.91131 6573 ft 276 kts 24°
2026-05-04 21:49 45.43024 9.92056 6444 ft 265 kts 24°
2026-05-04 21:50 45.44666 9.93084 6318 ft 251 kts 24°
2026-05-04 21:50 45.46222 9.94059 6212 ft 240 kts 24°
2026-05-04 21:50 45.47940 9.95136 6093 ft 232 kts 24°
2026-05-04 21:50 45.49190 9.95919 6014 ft 228 kts 24°
2026-05-04 21:51 45.50674 9.96750 5831 ft 231 kts 16°
2026-05-04 21:51 45.52224 9.97329 5616 ft 228 kts 14°
2026-05-04 21:51 45.53238 9.97691 5464 ft 224 kts 14°
2026-05-04 21:51 45.55189 9.98405 5210 ft 209 kts 15°
2026-05-04 21:52 45.56568 9.98922 4988 ft 202 kts 15°
2026-05-04 21:52 45.57924 9.99434 4804 ft 201 kts 15°
2026-05-04 21:52 45.58820 9.99774 4677 ft 201 kts 15°
2026-05-04 21:52 45.60622 9.99912 4379 ft 195 kts 335°
2026-05-04 21:53 45.61549 9.98611 4216 ft 188 kts 293°
2026-05-04 21:53 45.61963 9.96846 4151 ft 186 kts 285°
2026-05-04 21:53 45.62195 9.95651 4036 ft 192 kts 284°
2026-05-04 21:53 45.62656 9.93145 3706 ft 196 kts 284°
2026-05-04 21:54 45.62997 9.91277 3451 ft 193 kts 284°
2026-05-04 21:54 45.63329 9.89457 3202 ft 190 kts 285°
2026-05-04 21:54 45.63660 9.87653 2952 ft 185 kts 285°
2026-05-04 21:54 45.63975 9.85935 2724 ft 172 kts 285°
2026-05-04 21:55 45.64271 9.84324 2489 ft 163 kts 285°
2026-05-04 21:55 45.64463 9.83278 2346 ft 160 kts 285°
2026-05-04 21:55 45.64842 9.81214 2074 ft 161 kts 285°
2026-05-04 21:55 45.65114 9.79736 1853 ft 151 kts 285°
2026-05-04 21:56 45.65377 9.78304 1659 ft 149 kts 285°
2026-05-04 21:56 45.65555 9.77340 1494 ft 149 kts 285°
2026-05-04 21:56 45.65897 9.75459 1262 ft 146 kts 286°
2026-05-04 21:56 45.66159 9.74062 1064 ft 144 kts 285°
2026-05-04 21:57 45.66439 9.72550 850 ft 144 kts 285°
2026-05-04 21:57 45.66588 9.71747 788 ft 141 kts 285°
2026-05-04 21:57 45.66834 9.70431 786 ft 73 kts 285°
2026-05-04 21:57 45.66943 9.69841 786 ft 54 kts 285°
2026-05-04 21:58 45.67030 9.69375 786 ft 37 kts 284°
2026-05-04 21:58 45.67059 9.69205 786 ft 25 kts 284°
2026-05-04 21:58 45.66987 9.68993 786 ft 16 kts 196°
2026-05-04 21:58 45.66900 9.69043 786 ft 15 kts 99°
2026-05-04 21:59 45.66894 9.69191 786 ft 15 kts 101°
2026-05-04 21:59 45.66870 9.69328 786 ft 14 kts 105°
2026-05-04 21:59 45.66845 9.69458 786 ft 13 kts 107°
2026-05-04 21:59 45.66820 9.69583 786 ft 13 kts 105°
2026-05-04 22:00 45.66798 9.69705 786 ft 13 kts 104°
2026-05-04 22:00 45.66776 9.69823 786 ft 12 kts 105°
2026-05-04 22:00 45.66754 9.69939 786 ft 12 kts 105°
2026-05-04 22:00 45.66732 9.70051 786 ft 12 kts 105°
2026-05-04 22:01 45.66704 9.70140 786 ft 7 kts 163°
2026-05-04 22:01 45.66653 9.70125 786 ft 7 kts 194°
2026-05-04 22:01 45.66628 9.70116 786 ft 0 kts 195°
2026-05-04 22:01 45.66626 9.70115 786 ft 0 kts 195°